{"data":{"norad_id":67288,"epoch":"2026-09-20T10:26:55.950720Z","epoch_age_seconds":108628,"freshness":"FRESH","line1":"1 67288U 25313AS  26263.43536980  .00003244  00000+0  13692-3 0  9998","line2":"2 67288  97.3847 336.7558 0011659  22.9820 337.1937 15.23931746 40461","mean_motion":15.23931746,"eccentricity":0.0011659,"inclination_deg":97.3847,"raan_deg":336.7558,"arg_perigee_deg":22.982,"mean_anomaly_deg":337.1937,"bstar":0.00013692,"rev_number":4046,"period_min":94.492420922374,"perigee_km":485.98284991522,"apogee_km":502.007287473,"semimajor_km":6872.1320686941,"source":"CELESTRAK","updated_at":"2026-09-21T09:00:16.549038Z"}}